Location: Mary A Oil Field
(38.5606°N, 98.9545°W)
Time: 21:41:31
(UTC+00:00)

USA 234 - Pass Details

Date: 20 January 2020
Orbit: 1100 x 1107 km, 123.0° (Epoch: 09 February)

Event Time Altitude Azimuth Distance (km) Brightness Sun altitude
Rises 00:32:27 0° 144° (SE) 3,901 6.0 -9.8°
Reaches altitude 10° 00:34:58 10° 148° (SSE) 2,946 5.4 -10.3°
Maximum altitude 00:41:23 62° 228° (SW) 1,230 3.8 -11.5°
Drops below altitude 10° 00:47:51 10° 308° (NW) 2,963 6.0 -12.7°
Sets 00:50:23 0° 312° (NW) 3,924 6.6 -13.2°
